Satellite-Ground Cal/Val Site Overpasses Predictions

Prediction of Satellite NPP Overpassing Cal/Val Site: Antarctic Dome C

Ground Cal/Val Site Location: Latitude: -75.10, Longitude: 123.35; Satellite-Ground Site NADIR distance within 100 km.

Table of predicted overpasses for the next 14.0 days since TLE Epoch: 11/21/2012
Interval Starting Time Ending Time Minimum Distance Time Minimum Distance (km)
1 11/21/2012 14:40:23 11/21/2012 14:40:48 11/21/2012 14:40:36 50.81
2 11/22/2012 07:42:04 11/22/2012 07:42:25 11/22/2012 07:42:15 70.63
3 11/23/2012 07:23:11 11/23/2012 07:23:38 11/23/2012 07:23:25 37.33
4 11/25/2012 15:05:38 11/25/2012 15:05:45 11/25/2012 15:05:42 96.12
5 11/26/2012 14:46:38 11/26/2012 14:47:07 11/26/2012 14:46:52 15.11
6 11/28/2012 07:29:27 11/28/2012 07:29:56 11/28/2012 07:29:41 1.55
7 12/01/2012 14:52:53 12/01/2012 14:53:21 12/01/2012 14:53:07 21.17
8 12/02/2012 14:34:11 12/02/2012 14:34:25 12/02/2012 14:34:18 85.81
9 12/03/2012 07:35:42 12/03/2012 07:36:09 12/03/2012 07:35:56 35.24


<
